Location: Holkham
(52.9500°N, 0.8167°E)
Time: 05:04:14
(UTC+00:00)

Cosmos 2221 - Pass Details

Date: 18 December 2025
Orbit: 569 x 589 km, 82.5° (Epoch: 24 January)

Event Time Altitude Azimuth Distance (km) Brightness Sun altitude
Rises 17:02:26 0° 141° (SE) 2,787 5.8 -11.2°
Reaches altitude 10° 17:05:24 10° 118° (ESE) 1,889 4.7 -11.6°
Enters shadow 17:07:11 15° 93° (E) 1,611 4.1 -11.9°
